TimePST,TemperatureF,Dew PointF,Humidity,Sea Level PressureIn,VisibilityMPH,Wind Direction,Wind SpeedMPH,Gust SpeedMPH,PrecipitationIn,Events,Conditions,WindDirDegrees,DateUTC
12:53 AM,42.1,39.0,89,29.92,10.0,SE,9.2,-,N/A,,Overcast,130,2013-01-26 08:53:00
1:53 AM,41.0,37.9,89,29.91,10.0,SE,9.2,-,N/A,,Clear,130,2013-01-26 09:53:00
2:53 AM,41.0,37.9,89,29.91,10.0,SE,5.8,-,N/A,,Overcast,140,2013-01-26 10:53:00
3:53 AM,41.0,37.0,86,29.90,10.0,SE,5.8,-,N/A,,Overcast,130,2013-01-26 11:53:00
4:53 AM,41.0,37.0,86,29.90,7.0,SE,6.9,-,0.04,Rain,Light Rain,130,2013-01-26 12:53:00
5:51 AM,41.0,37.4,87,29.90,5.0,South,6.9,-,0.03,Rain,Light Rain,180,2013-01-26 13:51:00
5:53 AM,41.0,37.9,89,29.90,5.0,SSE,5.8,-,0.03,Rain,Light Rain,150,2013-01-26 13:53:00
6:27 AM,42.8,37.4,81,29.89,10.0,SE,5.8,-,0.02,,Overcast,130,2013-01-26 14:27:00
6:53 AM,41.0,37.9,89,29.89,8.0,SE,5.8,-,0.02,,Overcast,140,2013-01-26 14:53:00
7:29 AM,42.8,37.4,81,29.90,10.0,SSE,6.9,-,0.01,Rain,Light Rain,150,2013-01-26 15:29:00
7:53 AM,41.0,37.0,86,29.90,10.0,SE,5.8,-,0.01,Rain,Light Rain,140,2013-01-26 15:53:00
8:53 AM,43.0,37.9,82,29.91,5.0,South,6.9,-,0.04,Rain,Light Rain,190,2013-01-26 16:53:00
8:56 AM,42.8,39.2,87,29.91,6.0,South,6.9,-,0.00,Rain,Light Rain,180,2013-01-26 16:56:00
9:50 AM,44.6,39.2,81,29.93,10.0,South,8.1,-,0.00,,Overcast,190,2013-01-26 17:50:00
9:53 AM,45.0,39.0,80,29.93,10.0,South,5.8,-,0.00,,Overcast,180,2013-01-26 17:53:00
10:53 AM,46.0,37.9,73,29.94,10.0,South,13.8,19.6,N/A,,Overcast,180,2013-01-26 18:53:00
11:16 AM,46.4,37.4,71,29.94,10.0,South,11.5,20.7,N/A,,Overcast,190,2013-01-26 19:16:00
11:53 AM,48.9,37.9,66,29.93,10.0,South,9.2,20.7,N/A,,Overcast,190,2013-01-26 19:53:00
12:53 PM,48.0,36.0,63,29.93,10.0,SSW,10.4,21.9,N/A,,Overcast,200,2013-01-26 20:53:00
1:53 PM,48.0,37.9,68,29.93,10.0,SSW,11.5,-,N/A,,Overcast,200,2013-01-26 21:53:00
2:25 PM,46.4,37.4,71,29.93,10.0,SSW,9.2,16.1,N/A,,Overcast,200,2013-01-26 22:25:00
2:53 PM,48.0,37.0,66,29.93,10.0,SSW,6.9,-,N/A,,Overcast,200,2013-01-26 22:53:00
3:53 PM,46.9,37.0,68,29.94,10.0,South,8.1,-,0.00,,Overcast,170,2013-01-26 23:53:00
4:53 PM,46.0,37.0,71,29.95,10.0,South,6.9,-,0.01,Rain,Light Rain,190,2013-01-27 00:53:00
5:53 PM,46.0,37.0,71,29.97,10.0,Variable,5.8,-,0.01,Rain,Light Rain,0,2013-01-27 01:53:00
6:53 PM,45.0,37.0,74,29.98,10.0,South,3.5,-,0.00,,Overcast,180,2013-01-27 02:53:00
7:53 PM,45.0,37.0,74,30.00,10.0,South,6.9,-,N/A,,Overcast,170,2013-01-27 03:53:00
8:53 PM,44.1,37.0,76,30.01,10.0,SSE,8.1,-,N/A,,Overcast,160,2013-01-27 04:53:00
9:53 PM,44.1,37.0,76,30.01,10.0,SW,5.8,-,N/A,,Overcast,230,2013-01-27 05:53:00
10:53 PM,43.0,36.0,76,30.04,10.0,SSW,5.8,-,N/A,,Overcast,210,2013-01-27 06:53:00
11:53 PM,43.0,36.0,76,30.04,10.0,WSW,4.6,-,N/A,,Overcast,240,2013-01-27 07:53:00